DAL945 KLAS-KATL

Flight info

Callsign DAL945
Flight time N/A
Altitude 39000
Route NIITZ4 HOCEE DCT TBC J76 FTI DCT CRUSR DCT IRW DCT FSM DCT MEMFS DCT HUTCC DCT KNSAW DCT RUSSA GLAVN2
Aircraft A339/H-SADE1E2E3GHIJ3J5M1P2RWXY/LB2D1

Departure

Time 2026-05-01 13:07
Airport Harry Reid International Airport (KLAS)

Arrival

Time N/A
Airport Hartsfield Jackson Atlanta International Airport (KATL)
Time Latitude Longitude Altitude Speed Heading
2026-05-01 12:44 36.08024 -115.14074 2096 ft 0 kts 94°
2026-05-01 12:49 36.08024 -115.14073 2096 ft 0 kts 94°
2026-05-01 12:50 36.08025 -115.14090 2097 ft 2 kts 94°
2026-05-01 12:50 36.08026 -115.14108 2098 ft 2 kts 93°
2026-05-01 12:50 36.08027 -115.14127 2098 ft 2 kts 93°
2026-05-01 12:50 36.08028 -115.14146 2099 ft 2 kts 115°
2026-05-01 12:51 36.08039 -115.14158 2099 ft 2 kts 166°
2026-05-01 12:51 36.08046 -115.14159 2099 ft 1 kts 182°
2026-05-01 12:51 36.08049 -115.14159 2098 ft 0 kts 181°
2026-05-01 12:53 36.08048 -115.14159 2099 ft 1 kts 181°
2026-05-01 12:54 36.08020 -115.14160 2099 ft 6 kts 183°
2026-05-01 12:54 36.07912 -115.14162 2101 ft 8 kts 181°
2026-05-01 12:54 36.07849 -115.14163 2102 ft 9 kts 181°
2026-05-01 12:55 36.07757 -115.14223 2104 ft 8 kts 266°
2026-05-01 12:55 36.07754 -115.14291 2106 ft 7 kts 268°
2026-05-01 12:55 36.07757 -115.14363 2109 ft 8 kts 276°
2026-05-01 12:56 36.07764 -115.14445 2112 ft 10 kts 275°
2026-05-01 12:56 36.07767 -115.14494 2113 ft 11 kts 274°
2026-05-01 12:56 36.07773 -115.14607 2117 ft 18 kts 274°
2026-05-01 12:56 36.07782 -115.14766 2122 ft 17 kts 274°
2026-05-01 12:57 36.07790 -115.14901 2127 ft 14 kts 274°
2026-05-01 12:57 36.07800 -115.15085 2134 ft 8 kts 274°
2026-05-01 12:57 36.07803 -115.15151 2136 ft 6 kts 274°
2026-05-01 12:58 36.07806 -115.15206 2138 ft 7 kts 273°
2026-05-01 12:58 36.07807 -115.15294 2140 ft 12 kts 271°
2026-05-01 12:58 36.07808 -115.15417 2144 ft 15 kts 269°
2026-05-01 12:59 36.07805 -115.15719 2156 ft 19 kts 270°
2026-05-01 12:59 36.07803 -115.15895 2161 ft 21 kts 270°
2026-05-01 12:59 36.07800 -115.16277 2174 ft 20 kts 256°
2026-05-01 13:00 36.07652 -115.16376 2180 ft 9 kts 203°
2026-05-01 13:00 36.07597 -115.16414 2182 ft 8 kts 211°
2026-05-01 13:01 36.07485 -115.16496 2185 ft 8 kts 208°
2026-05-01 13:01 36.07433 -115.16532 2187 ft 8 kts 213°
2026-05-01 13:01 36.07393 -115.16647 2191 ft 10 kts 289°
2026-05-01 13:02 36.07419 -115.16726 2192 ft 0 kts 298°
2026-05-01 13:07 36.14976 -114.90469 9387 ft 286 kts 79°
2026-05-01 13:07 36.15087 -114.88016 10054 ft 294 kts 90°
2026-05-01 13:07 36.14792 -114.85482 10768 ft 301 kts 101°
2026-05-01 13:08 36.14239 -114.82978 11470 ft 305 kts 103°
2026-05-01 13:08 36.13636 -114.80460 12157 ft 310 kts 103°
2026-05-01 13:08 36.13029 -114.77914 12850 ft 314 kts 103°
2026-05-01 13:08 36.12438 -114.75315 13546 ft 317 kts 101°
2026-05-01 13:09 36.11918 -114.72629 14016 ft 329 kts 100°
2026-05-01 13:09 36.11391 -114.69813 14428 ft 343 kts 100°
2026-05-01 13:09 36.10854 -114.66932 15075 ft 348 kts 100°
2026-05-01 13:09 36.10303 -114.63999 15763 ft 352 kts 100°
2026-05-01 13:10 36.09743 -114.61030 16449 ft 356 kts 100°
2026-05-01 13:10 36.09181 -114.58051 17114 ft 360 kts 100°
2026-05-01 13:10 36.08609 -114.55032 17747 ft 365 kts 100°
2026-05-01 13:10 36.08032 -114.51986 18382 ft 370 kts 100°
2026-05-01 13:11 36.07438 -114.48863 19010 ft 375 kts 100°
2026-05-01 13:11 36.06839 -114.45717 19630 ft 380 kts 100°
2026-05-01 13:11 36.06238 -114.42567 20224 ft 385 kts 100°
2026-05-01 13:11 36.05621 -114.39329 20783 ft 390 kts 100°
2026-05-01 13:12 36.04989 -114.36022 21359 ft 395 kts 100°
2026-05-01 13:12 36.04358 -114.32718 21910 ft 400 kts 101°
2026-05-01 13:12 36.03714 -114.29353 22473 ft 403 kts 101°
2026-05-01 13:12 36.03069 -114.26000 23003 ft 408 kts 101°
2026-05-01 13:13 36.02407 -114.22562 23516 ft 412 kts 101°
2026-05-01 13:13 36.01744 -114.19119 24039 ft 416 kts 100°
2026-05-01 13:13 36.01073 -114.15641 24539 ft 421 kts 100°
2026-05-01 13:13 36.00394 -114.12130 25006 ft 425 kts 100°
2026-05-01 13:14 35.99703 -114.08558 25474 ft 429 kts 100°
2026-05-01 13:14 35.99002 -114.04941 25929 ft 433 kts 100°
2026-05-01 13:14 35.98301 -114.01325 26361 ft 437 kts 100°
2026-05-01 13:14 35.97595 -113.97687 26769 ft 442 kts 100°
2026-05-01 13:15 35.96867 -113.93962 27180 ft 446 kts 100°
2026-05-01 13:15 35.96144 -113.90269 27610 ft 450 kts 100°
2026-05-01 13:15 35.95410 -113.86504 28026 ft 453 kts 100°
2026-05-01 13:15 35.94664 -113.82700 28421 ft 457 kts 100°
2026-05-01 13:16 35.93919 -113.78901 28813 ft 461 kts 100°
2026-05-01 13:16 35.93161 -113.75036 29197 ft 464 kts 100°
2026-05-01 13:16 35.92394 -113.71143 29593 ft 467 kts 100°
2026-05-01 13:17 35.90168 -113.59345 30660 ft 475 kts 95°
2026-05-01 13:17 35.89765 -113.55325 30981 ft 475 kts 89°
2026-05-01 13:18 35.89864 -113.47199 31610 ft 473 kts 77°
2026-05-01 13:18 35.90360 -113.43175 31935 ft 472 kts 73°
2026-05-01 13:18 35.90971 -113.39255 32257 ft 473 kts 72°
2026-05-01 13:18 35.91619 -113.35238 32571 ft 475 kts 72°
2026-05-01 13:19 35.92258 -113.31252 32831 ft 478 kts 72°
2026-05-01 13:19 35.92894 -113.27229 33096 ft 481 kts 73°
2026-05-01 13:19 35.94159 -113.19069 33600 ft 487 kts 73°
2026-05-01 13:20 35.94785 -113.14990 33877 ft 489 kts 73°
2026-05-01 13:20 35.95409 -113.10898 34143 ft 491 kts 73°
2026-05-01 13:20 35.96040 -113.06754 34402 ft 494 kts 73°
2026-05-01 13:21 35.97300 -112.98424 34910 ft 498 kts 74°
2026-05-01 13:21 35.97935 -112.94204 35155 ft 501 kts 74°
2026-05-01 13:21 35.98569 -112.89970 35421 ft 503 kts 74°
2026-05-01 13:21 35.99209 -112.85707 35435 ft 504 kts 74°
2026-05-01 13:22 35.99840 -112.81487 35682 ft 505 kts 74°
2026-05-01 13:22 36.00476 -112.77213 36069 ft 505 kts 74°
2026-05-01 13:22 36.01099 -112.73013 36428 ft 504 kts 74°
2026-05-01 13:22 36.01736 -112.68719 36759 ft 504 kts 74°
2026-05-01 13:23 36.02359 -112.64511 37055 ft 505 kts 74°
2026-05-01 13:23 36.02988 -112.60250 37418 ft 504 kts 75°
2026-05-01 13:23 36.03611 -112.56020 37677 ft 505 kts 74°
2026-05-01 13:23 36.04242 -112.51721 37904 ft 507 kts 75°
2026-05-01 13:24 36.04862 -112.47495 38118 ft 508 kts 74°
2026-05-01 13:24 36.05490 -112.43184 38317 ft 509 kts 75°
2026-05-01 13:24 36.06111 -112.38924 38508 ft 510 kts 74°
2026-05-01 13:25 36.07369 -112.30266 38796 ft 514 kts 75°
2026-05-01 13:25 36.07998 -112.25919 38966 ft 515 kts 75°
2026-05-01 13:25 36.08621 -112.21599 39113 ft 516 kts 76°
2026-05-01 13:26 36.09889 -112.12790 39131 ft 525 kts 76°
2026-05-01 13:26 36.11170 -112.03836 39131 ft 534 kts 76°
2026-05-01 13:27 36.12462 -111.94714 39133 ft 538 kts 76°
2026-05-01 13:27 36.14374 -111.81129 39132 ft 538 kts 76°
2026-05-01 13:28 36.16270 -111.67503 39118 ft 538 kts 77°
2026-05-01 13:29 36.16463 -111.49005 39121 ft 545 kts 96°
2026-05-01 13:31 36.11839 -111.21500 39118 ft 545 kts 94°
2026-05-01 13:32 36.10649 -110.98287 39104 ft 544 kts 91°
2026-05-01 13:33 36.09425 -110.75002 39115 ft 544 kts 92°
2026-05-01 13:34 36.08405 -110.56437 39116 ft 543 kts 92°
2026-05-01 13:35 36.07624 -110.42532 39126 ft 543 kts 92°
2026-05-01 13:36 36.06824 -110.28587 39123 ft 543 kts 92°
2026-05-01 13:36 36.06008 -110.14687 39131 ft 543 kts 93°
2026-05-01 13:37 36.05457 -110.05431 39135 ft 543 kts 93°
2026-05-01 13:37 36.04902 -109.96204 39146 ft 542 kts 93°
2026-05-01 13:38 36.04050 -109.82301 39146 ft 541 kts 93°
2026-05-01 13:39 36.03478 -109.73114 39144 ft 540 kts 93°
2026-05-01 13:39 36.02896 -109.63872 39158 ft 539 kts 93°
2026-05-01 13:40 36.02309 -109.54688 39155 ft 539 kts 93°
2026-05-01 13:40 36.01718 -109.45541 39152 ft 538 kts 93°
2026-05-01 13:41 36.01118 -109.36340 39156 ft 538 kts 93°
2026-05-01 13:41 36.00513 -109.27196 39150 ft 537 kts 94°
2026-05-01 13:42 35.99897 -109.17978 39170 ft 537 kts 94°
2026-05-01 13:42 35.99282 -109.08884 39174 ft 538 kts 94°
2026-05-01 13:43 35.98654 -108.99719 39175 ft 536 kts 94°
2026-05-01 13:43 35.98022 -108.90597 39173 ft 536 kts 94°
2026-05-01 13:44 35.97383 -108.81452 39164 ft 536 kts 95°
2026-05-01 13:44 35.96737 -108.72335 39163 ft 536 kts 94°
2026-05-01 13:45 35.96081 -108.63148 39146 ft 537 kts 94°
2026-05-01 13:45 35.95422 -108.54009 39137 ft 538 kts 95°
2026-05-01 13:46 35.94753 -108.44851 39133 ft 538 kts 95°
2026-05-01 13:46 35.94075 -108.35680 39125 ft 538 kts 95°
2026-05-01 13:47 35.93388 -108.26466 39113 ft 539 kts 95°
2026-05-01 13:47 35.92696 -108.17297 39102 ft 539 kts 95°
2026-05-01 13:48 35.91999 -108.08161 39105 ft 538 kts 95°
2026-05-01 13:48 35.91301 -107.99048 39093 ft 538 kts 95°
2026-05-01 13:49 35.90590 -107.89888 39086 ft 538 kts 96°
2026-05-01 13:49 35.89871 -107.80706 39091 ft 537 kts 96°
2026-05-01 13:50 35.89143 -107.71542 39101 ft 538 kts 95°
2026-05-01 13:50 35.88413 -107.62417 39105 ft 538 kts 95°
2026-05-01 13:51 35.87676 -107.53249 39116 ft 539 kts 96°
2026-05-01 13:51 35.86929 -107.44116 39124 ft 539 kts 95°
2026-05-01 13:52 35.86172 -107.34930 39132 ft 539 kts 96°
2026-05-01 13:52 35.85409 -107.25782 39130 ft 539 kts 96°
2026-05-01 13:53 35.84639 -107.16615 39134 ft 540 kts 96°
2026-05-01 13:53 35.83470 -107.02896 39142 ft 539 kts 96°
2026-05-01 13:54 35.82683 -106.93737 39142 ft 539 kts 96°
2026-05-01 13:54 35.81887 -106.84560 39139 ft 539 kts 96°
2026-05-01 13:55 35.81087 -106.75397 39136 ft 539 kts 96°
2026-05-01 13:55 35.80278 -106.66259 39134 ft 539 kts 96°
2026-05-01 13:56 35.79465 -106.57121 39135 ft 539 kts 96°
2026-05-01 13:56 35.78644 -106.47974 39140 ft 539 kts 96°
2026-05-01 13:57 35.77817 -106.38857 39137 ft 539 kts 96°
2026-05-01 13:57 35.76984 -106.29727 39128 ft 539 kts 97°
2026-05-01 13:58 35.76140 -106.20559 39125 ft 539 kts 97°
2026-05-01 13:58 35.75291 -106.11453 39128 ft 540 kts 97°
2026-05-01 13:59 35.74436 -106.02318 39120 ft 539 kts 97°
2026-05-01 13:59 35.73571 -105.93150 39133 ft 540 kts 97°
2026-05-01 14:00 35.72700 -105.84030 39137 ft 540 kts 97°
2026-05-01 14:00 35.71820 -105.74842 39149 ft 540 kts 97°
2026-05-01 14:01 35.70937 -105.65726 39156 ft 539 kts 97°
2026-05-01 14:01 35.70055 -105.56693 39162 ft 540 kts 97°
2026-05-01 14:02 35.69159 -105.47561 39155 ft 540 kts 97°
2026-05-01 14:02 35.68247 -105.38383 39160 ft 539 kts 97°
2026-05-01 14:03 35.67335 -105.29222 39165 ft 539 kts 98°
2026-05-01 14:03 35.66420 -105.20145 39160 ft 539 kts 98°
2026-05-01 14:04 35.65679 -105.11027 39155 ft 539 kts 93°
2026-05-01 14:04 35.65449 -105.03332 39163 ft 540 kts 92°
2026-05-01 14:05 35.65186 -104.92616 39170 ft 539 kts 92°
2026-05-01 14:05 35.64945 -104.83443 39161 ft 538 kts 92°
2026-05-01 14:06 35.64693 -104.74296 39153 ft 538 kts 92°
2026-05-01 14:06 35.64429 -104.65131 39150 ft 538 kts 92°
2026-05-01 14:07 35.64154 -104.55943 39162 ft 538 kts 92°
2026-05-01 14:08 35.63731 -104.42210 39173 ft 539 kts 92°
2026-05-01 14:08 35.63441 -104.33055 39169 ft 538 kts 93°
2026-05-01 14:09 35.63145 -104.23882 39173 ft 538 kts 93°
2026-05-01 14:09 35.62841 -104.14707 39172 ft 538 kts 93°
2026-05-01 14:10 35.62530 -104.05551 39162 ft 538 kts 93°
2026-05-01 14:10 35.62214 -103.96421 39162 ft 538 kts 93°
2026-05-01 14:11 35.61888 -103.87233 39170 ft 538 kts 93°
2026-05-01 14:11 35.61388 -103.73539 39169 ft 537 kts 93°
2026-05-01 14:12 35.61048 -103.64421 39170 ft 537 kts 93°
2026-05-01 14:12 35.60701 -103.55269 39163 ft 537 kts 93°
2026-05-01 14:13 35.60405 -103.47623 39162 ft 537 kts 94°
2026-05-01 14:13 35.59984 -103.36958 39168 ft 537 kts 94°
2026-05-01 14:14 35.59615 -103.27856 39165 ft 538 kts 94°
2026-05-01 14:14 35.59238 -103.18677 39163 ft 538 kts 94°
2026-05-01 14:15 35.58855 -103.09552 39170 ft 538 kts 94°
2026-05-01 14:15 35.58464 -103.00405 39162 ft 538 kts 94°
2026-05-01 14:16 35.58066 -102.91237 39151 ft 538 kts 94°
2026-05-01 14:16 35.57661 -102.82082 39151 ft 539 kts 94°
2026-05-01 14:17 35.57254 -102.72962 39153 ft 539 kts 94°
2026-05-01 14:17 35.56834 -102.63773 39145 ft 538 kts 94°
2026-05-01 14:18 35.56409 -102.54644 39141 ft 538 kts 94°
2026-05-01 14:18 35.56050 -102.47039 39145 ft 538 kts 94°
2026-05-01 14:19 35.55538 -102.36350 39138 ft 538 kts 94°
2026-05-01 14:19 35.55095 -102.27244 39140 ft 538 kts 95°
2026-05-01 14:20 35.54412 -102.13500 39140 ft 538 kts 95°
2026-05-01 14:21 35.53951 -102.04402 39138 ft 538 kts 95°
2026-05-01 14:21 35.53479 -101.95214 39146 ft 539 kts 95°
2026-05-01 14:22 35.52763 -101.81515 39148 ft 538 kts 95°
2026-05-01 14:22 35.52278 -101.72408 39148 ft 539 kts 95°
2026-05-01 14:23 35.51782 -101.63216 39147 ft 538 kts 95°
2026-05-01 14:23 35.51282 -101.54118 39141 ft 539 kts 95°
2026-05-01 14:24 35.50778 -101.45007 39140 ft 538 kts 95°
2026-05-01 14:24 35.50259 -101.35825 39138 ft 539 kts 95°
2026-05-01 14:25 35.49737 -101.26690 39135 ft 539 kts 96°
2026-05-01 14:25 35.49210 -101.17572 39142 ft 539 kts 96°
2026-05-01 14:26 35.48402 -101.03835 39151 ft 539 kts 96°
2026-05-01 14:27 35.47858 -100.94710 39153 ft 539 kts 96°
2026-05-01 14:27 35.47306 -100.85579 39160 ft 540 kts 96°
2026-05-01 14:28 35.46457 -100.71831 39148 ft 542 kts 97°
2026-05-01 14:28 35.45886 -100.62676 39140 ft 541 kts 96°
2026-05-01 14:29 35.45309 -100.53495 39147 ft 542 kts 97°
2026-05-01 14:30 35.44120 -100.35070 39137 ft 544 kts 97°
2026-05-01 14:31 35.43212 -100.21188 39147 ft 544 kts 97°
2026-05-01 14:31 35.42598 -100.12003 39144 ft 545 kts 97°
2026-05-01 14:32 35.41994 -100.03077 39139 ft 547 kts 98°
2026-05-01 14:32 35.41362 -99.93783 39135 ft 546 kts 98°
2026-05-01 14:33 35.40724 -99.84549 39128 ft 547 kts 98°
2026-05-01 14:33 35.40082 -99.75291 39126 ft 549 kts 98°
2026-05-01 14:34 35.39426 -99.65987 39120 ft 548 kts 98°
2026-05-01 14:34 35.38762 -99.56677 39120 ft 550 kts 98°
2026-05-01 14:35 35.38091 -99.47361 39131 ft 552 kts 98°
2026-05-01 14:35 35.37410 -99.38039 39135 ft 553 kts 98°
2026-05-01 14:36 35.36725 -99.28715 39131 ft 554 kts 99°
2026-05-01 14:36 35.36021 -99.19273 39131 ft 556 kts 99°
2026-05-01 14:37 35.35322 -99.09940 39131 ft 556 kts 99°
2026-05-01 14:37 35.34604 -99.00470 39142 ft 559 kts 99°
2026-05-01 14:38 35.33885 -98.91052 39139 ft 560 kts 98°
2026-05-01 14:38 35.33613 -98.81495 39134 ft 565 kts 92°
2026-05-01 14:39 35.33829 -98.71940 39136 ft 565 kts 91°
2026-05-01 14:39 35.34078 -98.62339 39126 ft 566 kts 91°
2026-05-01 14:40 35.34290 -98.52777 39136 ft 567 kts 92°
2026-05-01 14:40 35.34491 -98.43103 39130 ft 568 kts 92°
2026-05-01 14:41 35.34680 -98.33495 39127 ft 570 kts 92°
2026-05-01 14:41 35.34864 -98.23824 39127 ft 570 kts 92°
2026-05-01 14:42 35.35038 -98.14140 39146 ft 570 kts 92°
2026-05-01 14:42 35.35211 -98.04468 39144 ft 570 kts 93°
2026-05-01 14:43 35.35364 -97.94771 39145 ft 569 kts 92°
2026-05-01 14:43 35.35516 -97.85129 39150 ft 572 kts 93°
2026-05-01 14:44 35.35661 -97.75426 39137 ft 573 kts 93°
2026-05-01 14:44 35.35862 -97.60860 39143 ft 574 kts 92°
2026-05-01 14:45 35.36167 -97.46227 39139 ft 576 kts 92°
2026-05-01 14:46 35.36382 -97.36450 39134 ft 577 kts 92°
2026-05-01 14:46 35.36682 -97.21755 39135 ft 577 kts 92°
2026-05-01 14:47 35.36872 -97.11947 39144 ft 579 kts 92°
2026-05-01 14:48 35.37134 -96.97176 39139 ft 579 kts 92°
2026-05-01 14:48 35.37385 -96.82478 39153 ft 580 kts 92°
2026-05-01 14:49 35.37688 -96.62721 39141 ft 582 kts 93°
2026-05-01 14:50 35.37958 -96.42924 39125 ft 582 kts 92°
2026-05-01 14:51 35.38149 -96.28063 39131 ft 584 kts 94°
2026-05-01 14:52 35.38310 -96.13145 39137 ft 584 kts 94°
2026-05-01 14:53 35.38454 -95.98308 39134 ft 585 kts 94°
2026-05-01 14:53 35.38541 -95.88397 39133 ft 586 kts 94°
2026-05-01 14:54 35.38624 -95.78436 39129 ft 586 kts 94°
2026-05-01 14:54 35.38694 -95.68447 39137 ft 587 kts 94°
2026-05-01 14:55 35.38758 -95.58495 39127 ft 588 kts 93°
2026-05-01 14:55 35.38816 -95.48563 39131 ft 588 kts 94°
2026-05-01 14:56 35.38861 -95.38558 39131 ft 588 kts 94°
2026-05-01 14:56 35.38903 -95.28589 39117 ft 589 kts 95°
2026-05-01 14:57 35.38934 -95.18577 39125 ft 589 kts 94°
2026-05-01 14:57 35.38969 -95.03538 39131 ft 590 kts 94°
2026-05-01 14:58 35.38980 -94.93540 39125 ft 589 kts 95°
2026-05-01 14:58 35.38979 -94.83534 39131 ft 590 kts 95°
2026-05-01 14:59 35.38975 -94.73513 39139 ft 590 kts 95°
2026-05-01 14:59 35.38954 -94.63518 39138 ft 592 kts 95°
2026-05-01 15:00 35.38923 -94.48444 39138 ft 592 kts 95°
2026-05-01 15:01 35.38890 -94.38395 39139 ft 592 kts 95°
2026-05-01 15:01 35.38826 -94.28284 39135 ft 591 kts 97°
2026-05-01 15:02 35.38277 -94.18312 39146 ft 589 kts 101°
2026-05-01 15:02 35.37554 -94.08406 39139 ft 588 kts 102°
2026-05-01 15:03 35.36818 -93.98402 39139 ft 589 kts 101°
2026-05-01 15:03 35.36094 -93.88439 39142 ft 590 kts 101°
2026-05-01 15:04 35.35366 -93.78467 39140 ft 591 kts 101°
2026-05-01 15:04 35.34633 -93.68465 39135 ft 591 kts 101°
2026-05-01 15:05 35.33893 -93.58506 39140 ft 592 kts 101°
2026-05-01 15:05 35.33138 -93.48458 39137 ft 593 kts 101°
2026-05-01 15:06 35.32377 -93.38498 39132 ft 593 kts 101°
2026-05-01 15:06 35.31607 -93.28445 39130 ft 591 kts 102°
2026-05-01 15:07 35.30822 -93.18436 39127 ft 593 kts 102°
2026-05-01 15:07 35.30035 -93.08427 39117 ft 592 kts 101°
2026-05-01 15:08 35.29247 -92.98475 39122 ft 593 kts 102°
2026-05-01 15:08 35.28444 -92.88422 39131 ft 592 kts 102°
2026-05-01 15:09 35.27630 -92.78452 39125 ft 594 kts 101°
2026-05-01 15:09 35.26815 -92.68467 39122 ft 593 kts 101°
2026-05-01 15:10 35.25987 -92.58453 39125 ft 594 kts 101°
2026-05-01 15:10 35.24723 -92.43398 39120 ft 595 kts 101°
2026-05-01 15:11 35.23447 -92.28346 39115 ft 595 kts 102°
2026-05-01 15:12 35.22584 -92.18339 39129 ft 595 kts 102°
2026-05-01 15:12 35.21272 -92.03284 39118 ft 596 kts 102°
2026-05-01 15:14 35.19042 -91.78178 39128 ft 597 kts 102°
2026-05-01 15:14 35.17677 -91.63095 39113 ft 597 kts 102°
2026-05-01 15:15 35.15819 -91.42996 39099 ft 600 kts 102°
2026-05-01 15:16 35.13936 -91.22813 39098 ft 598 kts 102°
2026-05-01 15:18 35.11523 -90.97624 39102 ft 600 kts 103°
2026-05-01 15:19 35.09564 -90.77512 39113 ft 601 kts 102°
2026-05-01 15:19 35.08062 -90.62395 39106 ft 600 kts 103°
2026-05-01 15:20 35.06538 -90.47253 39099 ft 602 kts 102°
2026-05-01 15:21 35.05524 -90.37159 39104 ft 602 kts 102°
2026-05-01 15:21 35.04481 -90.27014 39097 ft 603 kts 102°
2026-05-01 15:22 35.02930 -90.11883 39108 ft 603 kts 102°
2026-05-01 15:22 35.01870 -90.01734 39104 ft 604 kts 103°
2026-05-01 15:23 35.00613 -89.91657 39107 ft 602 kts 106°
2026-05-01 15:23 34.99195 -89.81649 39096 ft 600 kts 106°
2026-05-01 15:24 34.97766 -89.71624 39097 ft 601 kts 105°
2026-05-01 15:24 34.96342 -89.61642 39105 ft 602 kts 105°
2026-05-01 15:25 34.94923 -89.51647 39092 ft 602 kts 104°
2026-05-01 15:25 34.93485 -89.41583 39085 ft 603 kts 105°
2026-05-01 15:26 34.92019 -89.31433 39070 ft 604 kts 105°
2026-05-01 15:26 34.90551 -89.21315 39088 ft 604 kts 105°
2026-05-01 15:27 34.89070 -89.11184 39093 ft 609 kts 106°
2026-05-01 15:28 34.86834 -88.95957 39076 ft 609 kts 106°
2026-05-01 15:28 34.85325 -88.85802 39097 ft 611 kts 105°
2026-05-01 15:29 34.83382 -88.72815 39088 ft 611 kts 104°
2026-05-01 15:30 34.80325 -88.52457 39078 ft 612 kts 104°
2026-05-01 15:31 34.75654 -88.21945 39070 ft 612 kts 105°
2026-05-01 15:32 34.72518 -88.01689 39071 ft 611 kts 105°
2026-05-01 15:34 34.68647 -87.70993 39268 ft 619 kts 94°